Lemur-2 Deloitte-1

operational
NORAD ID: 63259 Int'l Des: 2025-052 Owner: SPIRE Country: US Constellation: spire
LEOCIRCULARRETROGRADESSO

About Lemur-2 Deloitte-1

Description loading...

Live Position

Loading 3D Globe...

Upcoming Passes

Altitude History

Altitude vs Time

uPlot chart will show altitude changes over time

Two-Line Element Set

1 63259U 25052BB 25315.28532370 .00008953 00000-0 82092-3 0 9994
2 63259 97.7111 206.3815 0002730 91.1724 268.9809 14.95116071 36101
Epoch: Nov 11, 2025 • Age: 25 hours

Current Status

Altitude 587.5 km
Velocity 7.57 km/s
Sub-Earth Point -10.81°S, 142.63°W
Launch Date Mar 15, 2025
Age 0.6 years
Type other

Technical Details

Classification Payload
Mass 10.00 kg
Dry Mass 10.00 kg
Total Mass 10.00 kg
Length 0.30 m
Diameter 0.20 m
Span 0.30 m
Shape Box
Manufacturer SPIREG
Bus Type Cubesat 6U
Phase Status In Orbit
Owner/State SPIRE/US

Large Constellations

Loading constellations...